Location: Cahas Mountain Overlook
(37.0833°N, 80.1000°W)
Time: 07:07:45
(UTC-04:00)

Explorer 7 - Pass Details

Date: 15 February 2026
Orbit: 430 x 540 km, 50.2° (Epoch: 14 March)

Event Time Altitude Azimuth Distance (km) Brightness Sun altitude
Rises 19:03:30 0° 306° (NW) 2,512 11.0 -13.2°
Reaches altitude 10° 19:07:08 10° 343° (NNW) 1,670 9.4 -13.9°
Maximum altitude 19:08:17 11° 1° (N) 1,611 9.1 -14.1°
Drops below altitude 10° 19:09:27 10° 19° (NNE) 1,692 9.1 -14.4°
Enters shadow 19:10:03 - 27° (NNE) 1,780 9.1 -14.5°
Sets 19:13:14 0° 56° (NE) 2,612 - -15.1°
